Regional Weather Roundup
Issued by NWS

Home | Current Version | Previous Version | Text Only | Print | Product List | Glossary On
Versions: 1 2 3 4 5 6 7 8 9 10 11 12 13 14 15 16 17 18 19 20 21 22 23 24 25 26 27 28 29 30 31 32 33 34 35 36 37 38 39 40 41 42 43 44 45 46 47 48
000
ASUS43 KDMX 251507
RWRIA

WEATHER ROUNDUP FOR IOWA
NATIONAL WEATHER SERVICE DES MOINES IA
1000 AM CDT FRI JUL 25 2014

NOTE: "FAIR" INDICATES FEW OR NO CLOUDS BELOW 12,000 FEET WITH NO
SIGNIFICANT WEATHER AND/OR OBSTRUCTIONS TO VISIBILITY.

* - THESE STATIONS ARE NOT NWS STATIONS...THUS NOT UNDER NWS
QUALITY CONTROL.  THEY ALSO DO NOT REPORT WEATHER SUCH
AS PRECIPITATION OR FOG.

IAZ001>003-012>014-020>022-031>034-043>046-251600-
   NORTHWEST IOWA

CITY           SKY/WX    TMP DP  RH WIND       PRES   REMARKS
CARROLL *      CLOUDY    66  57  72 SE17G25   29.89S
CHEROKEE *     PTSUNNY   68  61  77 SE20G29   29.80F
DENISON *      CLOUDY    68  61  77 SE15G25   29.83F
LE MARS *      SUNNY     72  63  73 SE21G29   29.77F
ORANGE CITY *  SUNNY     70  59  68 SE17G23   29.79S
SHELDON *      SUNNY     70  63  78 SE20G33   29.76F
SIOUX CITY     SUNNY     74  64  71 SE20G25   29.77S
SPENCER        SUNNY     71  60  68 S24G38    29.76F
STORM LAKE *   PTSUNNY   66  61  82 SE26G33   29.84F
$$

IAZ055>058-069>071-079>083-090>094-251600-
   SOUTHWEST IOWA

CITY           SKY/WX    TMP DP  RH WIND       PRES   REMARKS
ATLANTIC *     CLOUDY    70  59  68 E14G22    29.86F
AUDUBON *      MOSUNNY   70  63  78 SE15G22   29.88F
CLARINDA *     SUNNY     75  66  73 SE8G14    29.86F
COUNCIL BLFS * SUNNY     75  70  83 SE14G21   29.80F
CRESTON *      CLOUDY    68  59  73 SE20      29.90S
HARLAN  *      PTSUNNY   70  63  78 SE15G25   29.88F
LAMONI         CLOUDY    67  58  72 E9G18     29.91S
RED OAK *      SUNNY     75  66  73 E12       29.84F
SHENANDOAH *   SUNNY     79  70  73 SE13      29.82F HX  81
$$

IAZ047>049-059>061-072>074-084-251600-
   CENTRAL IOWA

CITY           SKY/WX    TMP DP  RH WIND       PRES   REMARKS
AMES           CLOUDY    65  61  87 SE12      29.93S
ANKENY *       CLOUDY    66  63  88 SE13G20   29.93F
CHARITON *     CLOUDY    66  59  77 SE16G22   29.96R
DES MOINES     CLOUDY    68  58  70 SE15G28   29.93F
GRINNELL*      LGT RAIN  63  61  94 SE13      29.98F
KNOXVILLE *    CLOUDY    64  59  82 SE9       29.95R
MARSHALLTOWN   CLOUDY    64  63  96 SE16G22   29.91F
PELLA *        LGT RAIN  64  61  88 SE8       30.00R
PERRY *        CLOUDY    66  59  77 SE12G18   29.91F
$$

IAZ004>006-015-016-023>025-035-036-251600-
   NORTH CENTRAL IOWA

CITY           SKY/WX    TMP DP  RH WIND       PRES   REMARKS
ALGONA *       SUNNY     72  63  73 S28G36    29.79F
CLARION *      SUNNY     70  64  83 S23G30    29.83F
ESTHERVILLE    MOSUNNY   68  60  75 S23G38    29.79
FORT DODGE *   MOSUNNY   70  61  73 S14G25    29.86F
MASON CITY     CLOUDY    67  65  93 S18G29    29.82R
FOREST CITY *  SUNNY     68  64  88 S18G26    29.83R
IOWA FALLS *   PTSUNNY   68  64  88 S21G28    29.87F
$$

IAZ007>011-017>019-026>030-037>042-050>054-066-251600-
   NORTHEAST IOWA

CITY           SKY/WX    TMP DP  RH WIND       PRES   REMARKS
CEDAR RAPIDS   RAIN      61  59  93 S7        30.05R FOG
CHARLES CITY * CLOUDY    64  63  94 S17G31    29.86R
CLINTON *      PTSUNNY   63  57  82 SW9       30.04R
DECORAH *      CLOUDY    63  61  94 W10G28    29.91R
DUBUQUE        RAIN      61  59  93 SW15      30.01R FOG
MONTICELLO *   LGT RAIN  61  61 100 SW6       30.06R
OELWEIN *      LGT RAIN  61  61 100 S29G36    29.85F
WATERLOO       LGT RAIN  63  62  97 S25G33    29.82F
$$

IAZ064-065-067-068-078-251600-
   EAST CENTRAL IOWA

CITY           SKY/WX    TMP DP  RH WIND       PRES   REMARKS
DAVENPORT      LGT RAIN  63  58  83 S15       30.01S
IOWA CITY      LGT RAIN  61  60  97 NW7       30.10  FOG
MT. PLEASANT * LGT RAIN  61  61 100 S15G23    29.98F
MUSCATINE *    LGT RAIN  63  61  94 S6        30.03R
QUAD CITIES    CLOUDY    63  59  87 S10       30.00R
$$

IAZ062-063-075>077-085>089-095>099-251600-
   SOUTHEAST IOWA

CITY           SKY/WX    TMP DP  RH WIND       PRES   REMARKS
BURLINGTON     TSTM      62  60  93 SW10      30.03R
FAIRFIELD *    LGT RAIN  61  59  94 S14G24    30.02S
FORT MADISON * RAIN      63  63 100 S9        30.05R
KEOKUK *       LGT RAIN  63  61  94 SE7       30.02R
OSKALOOSA *    LGT RAIN  63  61  94 SE8       30.02R
CENTERVILLE *  LGT RAIN  63  59  88 E14G24    29.97S
OTTUMWA        LGT RAIN  63  59  87 SE18G28   29.95F
WASHINGTON *   CLOUDY    63  61  94 SW7       30.05R FOG
$$

ABBREVIATIONS USED IN REMARKS
   TC - TEMPERATURES IN CELSIUS
  WCI - WIND CHILL INDEX
   HX - HEAT INDEX
  VSB - VISIBILITY
$$



USA.gov is the U.S. government's official web portal to all federal, state and local government web resources and services.